Location: Marcé
(47.5801°N, 0.3280°W)
Time: 17:07:58
(UTC+01:00)

SR - Pass Details

Date: 02 December 2021
Orbit: 582 x 872 km, 66.7° (Epoch: 22 January)

Event Time Altitude Azimuth Distance (km) Brightness Sun altitude
Rises 09:10:42 0° 326° (NNW) 2,817 ? 4.7°
Reaches altitude 10° 09:12:54 10° 329° (NNW) 1,923 ? 5.0°
Maximum altitude 09:17:12 72° 54° (NE) 641 ? 5.5°
Drops below altitude 10° 09:21:41 10° 139° (SE) 2,008 ? 6.1°
Sets 09:24:02 0° 142° (SE) 2,954 ? 6.4°
